This demonstration page uses our WeatherBlox Daily Observations layout. Learn more.

39.29038, -76.61219

Hourly Observations for March 17, 2019

Temp ( °F °C ) Dew Point ( °F °C ) Humidity (%) Winds ( mph kmh ) Pressure ( in mb ) Visibility ( mi km ) Precip ( " mm )
12:54 am 00:54 undefined 41 5 18 -7.8 39 39 undefined N/A 30.21 1023 N/A 0 0
1:54 am 01:54 undefined 40 4.4 19 -7.2 43 43 undefined N/A 30.22 1023 N/A 0 0
2:54 am 02:54 undefined 39 3.9 20 -6.7 46 46 undefined N/A 30.23 1024 N/A 0 0
3:54 am 03:54 undefined 39 3.9 19 -7.2 45 45 undefined N/A 30.22 1023 N/A 0 0
4:54 am 04:54 undefined 38 3.3 19 -7.2 46 46 undefined N/A 30.21 1023 N/A 0 0
5:54 am 05:54 undefined 37 2.8 19 -7.2 48 48 undefined N/A 30.23 1024 N/A 0 0
6:54 am 06:54 undefined 36 2.2 20 -6.7 52 52 undefined N/A 30.25 1025 N/A 0 0
7:54 am 07:54 undefined 36 2.2 20 -6.7 52 52 undefined N/A 30.28 1025 N/A 0 0
8:54 am 08:54 undefined 40 4.4 20 -6.7 45 45 undefined N/A 30.32 1027 N/A 0 0
9:54 am 09:54 undefined 40 4.4 19 -7.2 43 43 undefined N/A 30.29 1026 N/A 0 0
10:54 am 10:54 undefined 42 5.6 18 -7.8 38 38 undefined N/A 30.28 1026 N/A 0 0
11:54 am 11:54 undefined 44 6.7 16 -8.9 32 32 undefined N/A 30.28 1025 N/A 0 0
12:54 pm 12:54 undefined 47 8.3 16 -8.9 29 29 undefined N/A 30.27 1025 N/A 0 0
1:54 pm 13:54 undefined 48 8.9 15 -9.4 27 27 undefined N/A 30.23 1024 N/A 0 0
2:54 pm 14:54 undefined 50 10 15 -9.4 25 25 undefined N/A 30.2 1023 N/A 0 0
3:54 pm 15:54 undefined 51 10.6 16 -8.9 25 25 undefined N/A 30.17 1022 N/A 0 0
4:54 pm 16:54 undefined 50 10 15 -9.4 25 25 undefined N/A 30.14 1021 N/A 0 0
5:54 pm 17:54 undefined 48 8.9 15 -9.4 27 27 undefined N/A 30.12 1020 N/A 0 0
6:54 pm 18:54 undefined 48 8.9 16 -8.9 28 28 undefined N/A 30.15 1021 N/A 0 0
7:54 pm 19:54 undefined 47 8.3 17 -8.3 30 30 undefined N/A 30.17 1022 N/A 0 0
8:54 pm 20:54 undefined 46 7.8 16 -8.9 30 30 undefined N/A 30.19 1023 N/A 0 0
9:54 pm 21:54 undefined 46 7.8 15 -9.4 29 29 undefined N/A 30.21 1023 N/A 0 0
10:54 pm 22:54 undefined 45 7.2 15 -9.4 30 30 undefined N/A 30.22 1024 N/A 0 0
11:54 pm 23:54 undefined 44 6.7 16 -8.9 32 32 undefined N/A 30.24 1024 N/A 0 0

Powered by AerisWeather